owner,sensor,date,latitude,longitude,vertical_datum,sea_water_practical_salinity,qcFlag 
DISL,ioos:station:DISL:MHPA:1,2017-08-01T00:00:00Z,30.6671,-87.9365,1.121,0.22,1111122 
DISL,ioos:station:DISL:MHPA:1,2017-08-01T00:30:00Z,30.6671,-87.9365,1.105,0.22,1111122 
DISL,ioos:station:DISL:MHPA:1,2017-08-01T01:00:00Z,30.6671,-87.9365,1.098,0.22,1111122 
DISL,ioos:station:DISL:MHPA:1,2017-08-01T01:30:00Z,30.6671,-87.9365,1.097,0.22,1111122 
DISL,ioos:station:DISL:MHPA:1,2017-08-01T02:00:00Z,30.6671,-87.9365,1.092,0.22,1111122 
DISL,ioos:station:DISL:MHPA:1,2017-08-01T02:30:00Z,30.6671,-87.9365,1.098,0.22,1111122 
DISL,ioos:station:DISL:MHPA:1,2017-08-01T03:00:00Z,30.6671,-87.9365,1.121,0.22,1111122 
DISL,ioos:station:DISL:MHPA:1,2017-08-01T03:30:00Z,30.6671,-87.9365,1.132,0.22,1111122 
DISL,ioos:station:DISL:MHPA:1,2017-08-01T04:00:00Z,30.6671,-87.9365,1.152,0.22,1111122 
DISL,ioos:station:DISL:MHPA:1,2017-08-01T04:30:00Z,30.6671,-87.9365,1.173,0.22,1111122 
DISL,ioos:station:DISL:MHPA:1,2017-08-01T05:00:00Z,30.6671,-87.9365,1.188,0.22,1111122 
DISL,ioos:station:DISL:MHPA:1,2017-08-01T05:30:00Z,30.6671,-87.9365,1.204,0.22,1111122 
DISL,ioos:station:DISL:MHPA:1,2017-08-01T06:00:00Z,30.6671,-87.9365,1.235,0.22,1111122 
DISL,ioos:station:DISL:MHPA:1,2017-08-01T06:30:00Z,30.6671,-87.9365,1.251,0.22,1111122 
DISL,ioos:station:DISL:MHPA:1,2017-08-01T07:00:00Z,30.6671,-87.9365,1.245,0.22,1111122 
DISL,ioos:station:DISL:MHPA:1,2017-08-01T07:30:00Z,30.6671,-87.9365,1.273,0.22,1111122 
DISL,ioos:station:DISL:MHPA:1,2017-08-01T08:00:00Z,30.6671,-87.9365,1.283,0.22,1111122 
DISL,ioos:station:DISL:MHPA:1,2017-08-01T08:30:00Z,30.6671,-87.9365,1.283,0.22,1111122 
DISL,ioos:station:DISL:MHPA:1,2017-08-01T09:00:00Z,30.6671,-87.9365,1.306,0.22,1111122 
DISL,ioos:station:DISL:MHPA:1,2017-08-01T09:30:00Z,30.6671,-87.9365,1.324,0.22,1111122 
DISL,ioos:station:DISL:MHPA:1,2017-08-01T10:00:00Z,30.6671,-87.9365,1.336,0.22,1111122 
DISL,ioos:station:DISL:MHPA:1,2017-08-01T10:30:00Z,30.6671,-87.9365,1.363,0.22,1111122 
DISL,ioos:station:DISL:MHPA:1,2017-08-01T11:00:00Z,30.6671,-87.9365,1.38,0.22,1111122 
DISL,ioos:station:DISL:MHPA:1,2017-08-01T11:30:00Z,30.6671,-87.9365,1.394,0.22,1111122 
DISL,ioos:station:DISL:MHPA:1,2017-08-01T12:00:00Z,30.6671,-87.9365,1.396,0.22,1111122 
DISL,ioos:station:DISL:MHPA:1,2017-08-01T12:30:00Z,30.6671,-87.9365,1.414,0.22,1111122 
DISL,ioos:station:DISL:MHPA:1,2017-08-01T13:00:00Z,30.6671,-87.9365,1.418,0.22,1111122 
DISL,ioos:station:DISL:MHPA:1,2017-08-01T13:30:00Z,30.6671,-87.9365,1.417,0.22,1111122 
DISL,ioos:station:DISL:MHPA:1,2017-08-01T14:00:00Z,30.6671,-87.9365,1.413,0.22,1111122 
DISL,ioos:station:DISL:MHPA:1,2017-08-01T14:30:00Z,30.6671,-87.9365,1.406,0.22,1111122 
DISL,ioos:station:DISL:MHPA:1,2017-08-01T15:00:00Z,30.6671,-87.9365,1.409,0.23,1111122 
DISL,ioos:station:DISL:MHPA:1,2017-08-01T15:30:00Z,30.6671,-87.9365,1.398,0.23,1111122 
DISL,ioos:station:DISL:MHPA:1,2017-08-01T16:00:00Z,30.6671,-87.9365,1.38,0.23,1111122 
DISL,ioos:station:DISL:MHPA:1,2017-08-01T16:30:00Z,30.6671,-87.9365,1.361,0.23,1111122 
DISL,ioos:station:DISL:MHPA:1,2017-08-01T17:00:00Z,30.6671,-87.9365,1.345,0.23,1111122 
DISL,ioos:station:DISL:MHPA:1,2017-08-01T17:30:00Z,30.6671,-87.9365,1.318,0.23,1111122 
DISL,ioos:station:DISL:MHPA:1,2017-08-01T18:00:00Z,30.6671,-87.9365,1.278,0.23,1111122 
DISL,ioos:station:DISL:MHPA:1,2017-08-01T18:30:00Z,30.6671,-87.9365,1.24,0.23,1111122 
DISL,ioos:station:DISL:MHPA:1,2017-08-01T19:00:00Z,30.6671,-87.9365,1.214,0.23,1111122 
DISL,ioos:station:DISL:MHPA:1,2017-08-01T19:30:00Z,30.6671,-87.9365,1.192,0.23,1111122 
DISL,ioos:station:DISL:MHPA:1,2017-08-01T20:00:00Z,30.6671,-87.9365,1.17,0.24,1111122 
DISL,ioos:station:DISL:MHPA:1,2017-08-01T20:30:00Z,30.6671,-87.9365,1.14,0.26,1111122 
DISL,ioos:station:DISL:MHPA:1,2017-08-01T21:00:00Z,30.6671,-87.9365,1.123,0.26,1111122 
DISL,ioos:station:DISL:MHPA:1,2017-08-01T21:30:00Z,30.6671,-87.9365,1.114,0.25,1111122 
DISL,ioos:station:DISL:MHPA:1,2017-08-01T22:00:00Z,30.6671,-87.9365,1.091,0.24,1111122 
DISL,ioos:station:DISL:MHPA:1,2017-08-01T22:30:00Z,30.6671,-87.9365,1.072,0.25,1111122 
DISL,ioos:station:DISL:MHPA:1,2017-08-01T23:00:00Z,30.6671,-87.9365,1.069,0.24,1111122 
DISL,ioos:station:DISL:MHPA:1,2017-08-01T23:30:00Z,30.6671,-87.9365,1.062,0.24,1111122 
DISL,ioos:station:DISL:MHPA:1,2017-08-02T00:00:00Z,30.6671,-87.9365,1.049,0.25,1111122 
DISL,ioos:station:DISL:MHPA:1,2017-08-02T00:30:00Z,30.6671,-87.9365,1.053,0.25,1111122 
DISL,ioos:station:DISL:MHPA:1,2017-08-02T01:00:00Z,30.6671,-87.9365,1.074,0.25,1111122 
DISL,ioos:station:DISL:MHPA:1,2017-08-02T01:30:00Z,30.6671,-87.9365,1.082,0.25,1111122 
DISL,ioos:station:DISL:MHPA:1,2017-08-02T02:00:00Z,30.6671,-87.9365,1.091,0.24,1111122 
DISL,ioos:station:DISL:MHPA:1,2017-08-02T02:30:00Z,30.6671,-87.9365,1.109,0.24,1111122 
DISL,ioos:station:DISL:MHPA:1,2017-08-02T03:00:00Z,30.6671,-87.9365,1.123,0.25,1111122 
DISL,ioos:station:DISL:MHPA:1,2017-08-02T03:30:00Z,30.6671,-87.9365,1.132,0.25,1111122 
DISL,ioos:station:DISL:MHPA:1,2017-08-02T04:00:00Z,30.6671,-87.9365,1.151,0.25,1111122 
DISL,ioos:station:DISL:MHPA:1,2017-08-02T04:30:00Z,30.6671,-87.9365,1.177,0.24,1111122 
DISL,ioos:station:DISL:MHPA:1,2017-08-02T05:00:00Z,30.6671,-87.9365,1.201,0.24,1111122 
DISL,ioos:station:DISL:MHPA:1,2017-08-02T05:30:00Z,30.6671,-87.9365,1.211,0.24,1111122 
DISL,ioos:station:DISL:MHPA:1,2017-08-02T06:00:00Z,30.6671,-87.9365,1.241,0.24,1111122 
DISL,ioos:station:DISL:MHPA:1,2017-08-02T06:30:00Z,30.6671,-87.9365,1.257,0.24,1111122 
DISL,ioos:station:DISL:MHPA:1,2017-08-02T07:00:00Z,30.6671,-87.9365,1.277,0.24,1111122 
DISL,ioos:station:DISL:MHPA:1,2017-08-02T07:30:00Z,30.6671,-87.9365,1.308,0.24,1111122 
DISL,ioos:station:DISL:MHPA:1,2017-08-02T08:00:00Z,30.6671,-87.9365,1.324,0.24,1111122 
DISL,ioos:station:DISL:MHPA:1,2017-08-02T08:30:00Z,30.6671,-87.9365,1.348,0.24,1111122 
DISL,ioos:station:DISL:MHPA:1,2017-08-02T09:00:00Z,30.6671,-87.9365,1.375,0.25,1111122 
DISL,ioos:station:DISL:MHPA:1,2017-08-02T09:30:00Z,30.6671,-87.9365,1.392,0.26,1111122 
DISL,ioos:station:DISL:MHPA:1,2017-08-02T10:00:00Z,30.6671,-87.9365,1.415,0.26,1111122 
DISL,ioos:station:DISL:MHPA:1,2017-08-02T10:30:00Z,30.6671,-87.9365,1.436,0.26,1111122 
DISL,ioos:station:DISL:MHPA:1,2017-08-02T11:00:00Z,30.6671,-87.9365,1.45,0.26,1111122 
DISL,ioos:station:DISL:MHPA:1,2017-08-02T11:30:00Z,30.6671,-87.9365,1.451,0.26,1111122 
DISL,ioos:station:DISL:MHPA:1,2017-08-02T12:00:00Z,30.6671,-87.9365,1.458,0.26,1111122 
DISL,ioos:station:DISL:MHPA:1,2017-08-02T12:30:00Z,30.6671,-87.9365,1.46,0.26,1111122 
DISL,ioos:station:DISL:MHPA:1,2017-08-02T13:00:00Z,30.6671,-87.9365,1.456,0.26,1111122 
DISL,ioos:station:DISL:MHPA:1,2017-08-02T13:30:00Z,30.6671,-87.9365,1.449,0.26,1111122 
DISL,ioos:station:DISL:MHPA:1,2017-08-02T14:00:00Z,30.6671,-87.9365,1.442,0.26,1111122 
DISL,ioos:station:DISL:MHPA:1,2017-08-02T14:30:00Z,30.6671,-87.9365,1.44,0.26,1111122 
DISL,ioos:station:DISL:MHPA:1,2017-08-02T15:00:00Z,30.6671,-87.9365,1.417,0.28,1111122 
DISL,ioos:station:DISL:MHPA:1,2017-08-02T15:30:00Z,30.6671,-87.9365,1.391,0.33,1111122 
DISL,ioos:station:DISL:MHPA:1,2017-08-02T16:00:00Z,30.6671,-87.9365,1.365,0.3,1111122 
DISL,ioos:station:DISL:MHPA:1,2017-08-02T16:30:00Z,30.6671,-87.9365,1.356,0.29,1111122 
DISL,ioos:station:DISL:MHPA:1,2017-08-02T17:00:00Z,30.6671,-87.9365,1.348,0.28,1111122 
DISL,ioos:station:DISL:MHPA:1,2017-08-02T17:30:00Z,30.6671,-87.9365,1.309,0.28,1111122 
DISL,ioos:station:DISL:MHPA:1,2017-08-02T18:00:00Z,30.6671,-87.9365,1.278,0.3,1111122 
DISL,ioos:station:DISL:MHPA:1,2017-08-02T18:30:00Z,30.6671,-87.9365,1.254,0.29,1111122 
DISL,ioos:station:DISL:MHPA:1,2017-08-02T19:00:00Z,30.6671,-87.9365,1.238,0.28,1111122 
DISL,ioos:station:DISL:MHPA:1,2017-08-02T19:30:00Z,30.6671,-87.9365,1.216,0.27,1111122 
DISL,ioos:station:DISL:MHPA:1,2017-08-02T20:00:00Z,30.6671,-87.9365,1.179,0.24,1111122 
DISL,ioos:station:DISL:MHPA:1,2017-08-02T20:30:00Z,30.6671,-87.9365,1.147,0.26,1111122 
DISL,ioos:station:DISL:MHPA:1,2017-08-02T21:00:00Z,30.6671,-87.9365,1.131,0.38,1111122 
DISL,ioos:station:DISL:MHPA:1,2017-08-02T21:30:00Z,30.6671,-87.9365,1.107,0.35,1111122 
DISL,ioos:station:DISL:MHPA:1,2017-08-02T22:00:00Z,30.6671,-87.9365,1.1,0.32,1111122 
DISL,ioos:station:DISL:MHPA:1,2017-08-02T22:30:00Z,30.6671,-87.9365,1.104,0.38,1111122 
DISL,ioos:station:DISL:MHPA:1,2017-08-02T23:00:00Z,30.6671,-87.9365,1.102,0.4,1111122 
DISL,ioos:station:DISL:MHPA:1,2017-08-02T23:30:00Z,30.6671,-87.9365,1.087,0.4,1111122 
DISL,ioos:station:DISL:MHPA:1,2017-08-03T00:00:00Z,30.6671,-87.9365,1.075,0.39,1111122 
DISL,ioos:station:DISL:MHPA:1,2017-08-03T00:30:00Z,30.6671,-87.9365,1.079,0.39,1111122 
DISL,ioos:station:DISL:MHPA:1,2017-08-03T01:00:00Z,30.6671,-87.9365,1.096,0.39,1111122 
DISL,ioos:station:DISL:MHPA:1,2017-08-03T01:30:00Z,30.6671,-87.9365,1.078,0.38,1111122 
DISL,ioos:station:DISL:MHPA:1,2017-08-03T02:00:00Z,30.6671,-87.9365,1.054,0.39,1111122 
DISL,ioos:station:DISL:MHPA:1,2017-08-03T02:30:00Z,30.6671,-87.9365,1.086,0.39,1111122 
DISL,ioos:station:DISL:MHPA:1,2017-08-03T03:00:00Z,30.6671,-87.9365,1.134,0.4,1111122 
DISL,ioos:station:DISL:MHPA:1,2017-08-03T03:30:00Z,30.6671,-87.9365,1.133,0.41,1111122 
DISL,ioos:station:DISL:MHPA:1,2017-08-03T04:00:00Z,30.6671,-87.9365,1.148,0.41,1111122 
DISL,ioos:station:DISL:MHPA:1,2017-08-03T04:30:00Z,30.6671,-87.9365,1.197,0.4,1111122 
DISL,ioos:station:DISL:MHPA:1,2017-08-03T05:00:00Z,30.6671,-87.9365,1.224,0.37,1111122 
DISL,ioos:station:DISL:MHPA:1,2017-08-03T05:30:00Z,30.6671,-87.9365,1.234,0.38,1111122 
DISL,ioos:station:DISL:MHPA:1,2017-08-03T06:00:00Z,30.6671,-87.9365,1.256,0.38,1111122 
DISL,ioos:station:DISL:MHPA:1,2017-08-03T06:30:00Z,30.6671,-87.9365,1.293,0.38,1111122 
DISL,ioos:station:DISL:MHPA:1,2017-08-03T07:00:00Z,30.6671,-87.9365,1.307,0.38,1111122 
DISL,ioos:station:DISL:MHPA:1,2017-08-03T07:30:00Z,30.6671,-87.9365,1.32,0.38,1111122 
DISL,ioos:station:DISL:MHPA:1,2017-08-03T08:00:00Z,30.6671,-87.9365,1.363,0.38,1111122 
DISL,ioos:station:DISL:MHPA:1,2017-08-03T08:30:00Z,30.6671,-87.9365,1.356,0.38,1111122 
DISL,ioos:station:DISL:MHPA:1,2017-08-03T09:00:00Z,30.6671,-87.9365,1.347,0.38,1111122 
DISL,ioos:station:DISL:MHPA:1,2017-08-03T09:30:00Z,30.6671,-87.9365,1.355,0.38,1111122 
DISL,ioos:station:DISL:MHPA:1,2017-08-03T10:00:00Z,30.6671,-87.9365,1.365,0.38,1111122 
DISL,ioos:station:DISL:MHPA:1,2017-08-03T10:30:00Z,30.6671,-87.9365,1.365,0.38,1111122 
DISL,ioos:station:DISL:MHPA:1,2017-08-03T11:00:00Z,30.6671,-87.9365,1.352,0.38,1111122 
DISL,ioos:station:DISL:MHPA:1,2017-08-03T11:30:00Z,30.6671,-87.9365,1.373,0.38,1111122 
DISL,ioos:station:DISL:MHPA:1,2017-08-03T12:00:00Z,30.6671,-87.9365,1.387,0.38,1111122 
DISL,ioos:station:DISL:MHPA:1,2017-08-03T12:30:00Z,30.6671,-87.9365,1.402,0.39,1111122 
DISL,ioos:station:DISL:MHPA:1,2017-08-03T13:00:00Z,30.6671,-87.9365,1.413,0.4,1111122 
DISL,ioos:station:DISL:MHPA:1,2017-08-03T13:30:00Z,30.6671,-87.9365,1.418,0.41,1111122 
DISL,ioos:station:DISL:MHPA:1,2017-08-03T14:00:00Z,30.6671,-87.9365,1.414,0.42,1111122 
DISL,ioos:station:DISL:MHPA:1,2017-08-03T14:30:00Z,30.6671,-87.9365,1.44,0.42,1111122 
DISL,ioos:station:DISL:MHPA:1,2017-08-03T15:00:00Z,30.6671,-87.9365,1.434,0.42,1111122 
DISL,ioos:station:DISL:MHPA:1,2017-08-03T15:30:00Z,30.6671,-87.9365,1.417,0.41,1111122 
DISL,ioos:station:DISL:MHPA:1,2017-08-03T16:00:00Z,30.6671,-87.9365,1.404,0.41,1111122 
DISL,ioos:station:DISL:MHPA:1,2017-08-03T16:30:00Z,30.6671,-87.9365,1.398,0.4,1111122 
DISL,ioos:station:DISL:MHPA:1,2017-08-03T17:00:00Z,30.6671,-87.9365,1.425,0.39,1111122 
DISL,ioos:station:DISL:MHPA:1,2017-08-03T17:30:00Z,30.6671,-87.9365,1.399,0.39,1111122 
DISL,ioos:station:DISL:MHPA:1,2017-08-03T18:00:00Z,30.6671,-87.9365,1.369,0.4,1111122 
DISL,ioos:station:DISL:MHPA:1,2017-08-03T18:30:00Z,30.6671,-87.9365,1.345,0.39,1111122 
DISL,ioos:station:DISL:MHPA:1,2017-08-03T19:00:00Z,30.6671,-87.9365,1.322,0.4,1111122 
DISL,ioos:station:DISL:MHPA:1,2017-08-03T19:30:00Z,30.6671,-87.9365,1.296,0.44,1111122 
DISL,ioos:station:DISL:MHPA:1,2017-08-03T20:00:00Z,30.6671,-87.9365,1.265,0.51,1111122 
DISL,ioos:station:DISL:MHPA:1,2017-08-03T20:30:00Z,30.6671,-87.9365,1.23,0.51,1111122 
DISL,ioos:station:DISL:MHPA:1,2017-08-03T21:00:00Z,30.6671,-87.9365,1.196,0.5,1111122 
DISL,ioos:station:DISL:MHPA:1,2017-08-03T21:30:00Z,30.6671,-87.9365,1.156,0.48,1111122 
DISL,ioos:station:DISL:MHPA:1,2017-08-03T22:00:00Z,30.6671,-87.9365,1.116,0.5,1111122 
DISL,ioos:station:DISL:MHPA:1,2017-08-03T22:30:00Z,30.6671,-87.9365,1.074,0.53,1111122 
DISL,ioos:station:DISL:MHPA:1,2017-08-03T23:00:00Z,30.6671,-87.9365,1.043,0.5,1111122 
DISL,ioos:station:DISL:MHPA:1,2017-08-03T23:30:00Z,30.6671,-87.9365,1.034,0.49,1111122 
DISL,ioos:station:DISL:MHPA:1,2017-08-04T00:00:00Z,30.6671,-87.9365,1.031,0.48,1111122 
DISL,ioos:station:DISL:MHPA:1,2017-08-04T00:30:00Z,30.6671,-87.9365,1.028,0.47,1111122 
DISL,ioos:station:DISL:MHPA:1,2017-08-04T01:00:00Z,30.6671,-87.9365,1.017,0.48,1111122 
DISL,ioos:station:DISL:MHPA:1,2017-08-04T01:30:00Z,30.6671,-87.9365,1.016,0.49,1111122 
DISL,ioos:station:DISL:MHPA:1,2017-08-04T02:00:00Z,30.6671,-87.9365,1.015,0.49,1111122 
DISL,ioos:station:DISL:MHPA:1,2017-08-04T02:30:00Z,30.6671,-87.9365,1.012,0.5,1111122 
DISL,ioos:station:DISL:MHPA:1,2017-08-04T03:00:00Z,30.6671,-87.9365,1.007,0.49,1111122 
DISL,ioos:station:DISL:MHPA:1,2017-08-04T03:30:00Z,30.6671,-87.9365,1.006,0.48,1111122 
DISL,ioos:station:DISL:MHPA:1,2017-08-04T04:00:00Z,30.6671,-87.9365,1.019,0.5,1111122 
DISL,ioos:station:DISL:MHPA:1,2017-08-04T04:30:00Z,30.6671,-87.9365,1.054,0.51,1111122 
DISL,ioos:station:DISL:MHPA:1,2017-08-04T05:00:00Z,30.6671,-87.9365,1.104,0.52,1111122 
DISL,ioos:station:DISL:MHPA:1,2017-08-04T05:30:00Z,30.6671,-87.9365,1.159,0.52,1111122 
DISL,ioos:station:DISL:MHPA:1,2017-08-04T06:00:00Z,30.6671,-87.9365,1.205,0.53,1111122 
DISL,ioos:station:DISL:MHPA:1,2017-08-04T06:30:00Z,30.6671,-87.9365,1.283,0.53,1111122 
DISL,ioos:station:DISL:MHPA:1,2017-08-04T07:00:00Z,30.6671,-87.9365,1.326,0.54,1111122 
DISL,ioos:station:DISL:MHPA:1,2017-08-04T07:30:00Z,30.6671,-87.9365,1.328,0.54,1111122 
DISL,ioos:station:DISL:MHPA:1,2017-08-04T08:00:00Z,30.6671,-87.9365,1.375,0.54,1111122 
DISL,ioos:station:DISL:MHPA:1,2017-08-04T08:30:00Z,30.6671,-87.9365,1.458,0.55,1111122 
DISL,ioos:station:DISL:MHPA:1,2017-08-04T09:00:00Z,30.6671,-87.9365,1.448,0.54,1111122 
DISL,ioos:station:DISL:MHPA:1,2017-08-04T09:30:00Z,30.6671,-87.9365,1.389,0.53,1111122 
DISL,ioos:station:DISL:MHPA:1,2017-08-04T10:00:00Z,30.6671,-87.9365,1.407,0.52,1111122 
DISL,ioos:station:DISL:MHPA:1,2017-08-04T10:30:00Z,30.6671,-87.9365,1.439,0.51,1111122 
DISL,ioos:station:DISL:MHPA:1,2017-08-04T11:00:00Z,30.6671,-87.9365,1.499,0.51,1111122 
DISL,ioos:station:DISL:MHPA:1,2017-08-04T11:30:00Z,30.6671,-87.9365,1.484,0.51,1111122 
DISL,ioos:station:DISL:MHPA:1,2017-08-04T12:00:00Z,30.6671,-87.9365,1.478,0.51,1111122 
DISL,ioos:station:DISL:MHPA:1,2017-08-04T12:30:00Z,30.6671,-87.9365,1.491,0.51,1111122 
DISL,ioos:station:DISL:MHPA:1,2017-08-04T13:00:00Z,30.6671,-87.9365,1.521,0.52,1111122 
DISL,ioos:station:DISL:MHPA:1,2017-08-04T13:30:00Z,30.6671,-87.9365,1.489,0.53,1111122 
DISL,ioos:station:DISL:MHPA:1,2017-08-04T14:00:00Z,30.6671,-87.9365,1.504,0.53,1111122 
DISL,ioos:station:DISL:MHPA:1,2017-08-04T14:30:00Z,30.6671,-87.9365,1.485,0.54,1111122 
DISL,ioos:station:DISL:MHPA:1,2017-08-04T15:00:00Z,30.6671,-87.9365,1.462,0.52,1111122 
DISL,ioos:station:DISL:MHPA:1,2017-08-04T15:30:00Z,30.6671,-87.9365,1.463,0.52,1111122 
DISL,ioos:station:DISL:MHPA:1,2017-08-04T16:00:00Z,30.6671,-87.9365,1.479,0.53,1111122 
DISL,ioos:station:DISL:MHPA:1,2017-08-04T16:30:00Z,30.6671,-87.9365,1.47,0.53,1111122 
DISL,ioos:station:DISL:MHPA:1,2017-08-04T17:00:00Z,30.6671,-87.9365,1.448,0.53,1111122 
DISL,ioos:station:DISL:MHPA:1,2017-08-04T17:30:00Z,30.6671,-87.9365,1.449,0.54,1111122 
DISL,ioos:station:DISL:MHPA:1,2017-08-04T18:00:00Z,30.6671,-87.9365,1.425,0.55,1111122 
DISL,ioos:station:DISL:MHPA:1,2017-08-04T18:30:00Z,30.6671,-87.9365,1.409,0.54,1111122 
DISL,ioos:station:DISL:MHPA:1,2017-08-04T19:00:00Z,30.6671,-87.9365,1.383,0.54,1111122 
DISL,ioos:station:DISL:MHPA:1,2017-08-04T19:30:00Z,30.6671,-87.9365,1.378,0.54,1111122 
DISL,ioos:station:DISL:MHPA:1,2017-08-04T20:00:00Z,30.6671,-87.9365,1.381,0.54,1111122 
DISL,ioos:station:DISL:MHPA:1,2017-08-04T20:30:00Z,30.6671,-87.9365,1.356,0.54,1111122 
DISL,ioos:station:DISL:MHPA:1,2017-08-04T21:00:00Z,30.6671,-87.9365,1.377,0.54,1111122 
DISL,ioos:station:DISL:MHPA:1,2017-08-04T21:30:00Z,30.6671,-87.9365,1.393,0.54,1111122 
DISL,ioos:station:DISL:MHPA:1,2017-08-04T22:00:00Z,30.6671,-87.9365,1.397,0.53,1111122 
DISL,ioos:station:DISL:MHPA:1,2017-08-04T22:30:00Z,30.6671,-87.9365,1.291,0.54,1111122 
DISL,ioos:station:DISL:MHPA:1,2017-08-04T23:00:00Z,30.6671,-87.9365,1.293,0.53,1111122 
DISL,ioos:station:DISL:MHPA:1,2017-08-04T23:30:00Z,30.6671,-87.9365,1.275,0.54,1111122 
DISL,ioos:station:DISL:MHPA:1,2017-08-05T00:00:00Z,30.6671,-87.9365,1.267,0.54,1111122 
DISL,ioos:station:DISL:MHPA:1,2017-08-05T00:30:00Z,30.6671,-87.9365,1.243,0.53,1111122 
DISL,ioos:station:DISL:MHPA:1,2017-08-05T01:00:00Z,30.6671,-87.9365,1.206,0.53,1111122 
DISL,ioos:station:DISL:MHPA:1,2017-08-05T01:30:00Z,30.6671,-87.9365,1.147,0.52,1111122 
DISL,ioos:station:DISL:MHPA:1,2017-08-05T02:00:00Z,30.6671,-87.9365,1.178,0.52,1111122 
DISL,ioos:station:DISL:MHPA:1,2017-08-05T02:30:00Z,30.6671,-87.9365,1.184,0.54,1111122 
DISL,ioos:station:DISL:MHPA:1,2017-08-05T03:00:00Z,30.6671,-87.9365,1.155,0.55,1111122 
DISL,ioos:station:DISL:MHPA:1,2017-08-05T03:30:00Z,30.6671,-87.9365,1.191,0.55,1111122 
DISL,ioos:station:DISL:MHPA:1,2017-08-05T04:00:00Z,30.6671,-87.9365,1.174,0.55,1111122 
DISL,ioos:station:DISL:MHPA:1,2017-08-05T04:30:00Z,30.6671,-87.9365,1.14,0.55,1111122 
DISL,ioos:station:DISL:MHPA:1,2017-08-05T05:00:00Z,30.6671,-87.9365,1.13,0.55,1111122 
DISL,ioos:station:DISL:MHPA:1,2017-08-05T05:30:00Z,30.6671,-87.9365,1.137,0.56,1111122 
DISL,ioos:station:DISL:MHPA:1,2017-08-05T06:00:00Z,30.6671,-87.9365,1.121,0.56,1111122 
DISL,ioos:station:DISL:MHPA:1,2017-08-05T06:30:00Z,30.6671,-87.9365,1.121,0.56,1111122 
DISL,ioos:station:DISL:MHPA:1,2017-08-05T07:00:00Z,30.6671,-87.9365,1.144,0.56,1111122 
DISL,ioos:station:DISL:MHPA:1,2017-08-05T07:30:00Z,30.6671,-87.9365,1.18,0.57,1111122 
DISL,ioos:station:DISL:MHPA:1,2017-08-05T08:00:00Z,30.6671,-87.9365,1.217,0.57,1111122 
DISL,ioos:station:DISL:MHPA:1,2017-08-05T08:30:00Z,30.6671,-87.9365,1.239,0.58,1111122 
DISL,ioos:station:DISL:MHPA:1,2017-08-05T09:00:00Z,30.6671,-87.9365,1.261,0.58,1111122 
DISL,ioos:station:DISL:MHPA:1,2017-08-05T09:30:00Z,30.6671,-87.9365,1.282,0.58,1111122 
DISL,ioos:station:DISL:MHPA:1,2017-08-05T10:00:00Z,30.6671,-87.9365,1.299,0.58,1111122 
DISL,ioos:station:DISL:MHPA:1,2017-08-05T10:30:00Z,30.6671,-87.9365,1.31,0.58,1111122 
DISL,ioos:station:DISL:MHPA:1,2017-08-05T11:00:00Z,30.6671,-87.9365,1.338,0.58,1111122 
DISL,ioos:station:DISL:MHPA:1,2017-08-05T11:30:00Z,30.6671,-87.9365,1.377,0.58,1111122 
DISL,ioos:station:DISL:MHPA:1,2017-08-05T12:00:00Z,30.6671,-87.9365,1.384,0.59,1111122 
DISL,ioos:station:DISL:MHPA:1,2017-08-05T12:30:00Z,30.6671,-87.9365,1.405,0.59,1111122 
DISL,ioos:station:DISL:MHPA:1,2017-08-05T13:00:00Z,30.6671,-87.9365,1.437,0.59,1111122 
DISL,ioos:station:DISL:MHPA:1,2017-08-05T13:30:00Z,30.6671,-87.9365,1.464,0.59,1111122 
DISL,ioos:station:DISL:MHPA:1,2017-08-05T14:00:00Z,30.6671,-87.9365,1.48,0.59,1111122 
DISL,ioos:station:DISL:MHPA:1,2017-08-05T14:30:00Z,30.6671,-87.9365,1.504,0.59,1111122 
DISL,ioos:station:DISL:MHPA:1,2017-08-05T15:00:00Z,30.6671,-87.9365,1.539,0.58,1111122 
DISL,ioos:station:DISL:MHPA:1,2017-08-05T15:30:00Z,30.6671,-87.9365,1.538,0.54,1111122 
DISL,ioos:station:DISL:MHPA:1,2017-08-05T16:00:00Z,30.6671,-87.9365,1.541,0.55,1111122 
DISL,ioos:station:DISL:MHPA:1,2017-08-05T16:30:00Z,30.6671,-87.9365,1.543,0.56,1111122 
DISL,ioos:station:DISL:MHPA:1,2017-08-05T17:00:00Z,30.6671,-87.9365,1.535,0.56,1111122 
DISL,ioos:station:DISL:MHPA:1,2017-08-05T17:30:00Z,30.6671,-87.9365,1.522,0.56,1111122 
DISL,ioos:station:DISL:MHPA:1,2017-08-05T18:00:00Z,30.6671,-87.9365,1.494,0.56,1111122 
DISL,ioos:station:DISL:MHPA:1,2017-08-05T18:30:00Z,30.6671,-87.9365,1.464,0.57,1111122 
DISL,ioos:station:DISL:MHPA:1,2017-08-05T19:00:00Z,30.6671,-87.9365,1.452,0.57,1111122 
DISL,ioos:station:DISL:MHPA:1,2017-08-05T19:30:00Z,30.6671,-87.9365,1.436,0.57,1111122 
DISL,ioos:station:DISL:MHPA:1,2017-08-05T20:00:00Z,30.6671,-87.9365,1.39,0.57,1111122 
DISL,ioos:station:DISL:MHPA:1,2017-08-05T20:30:00Z,30.6671,-87.9365,1.368,0.59,1111122 
DISL,ioos:station:DISL:MHPA:1,2017-08-05T21:00:00Z,30.6671,-87.9365,1.354,0.67,1111122 
DISL,ioos:station:DISL:MHPA:1,2017-08-05T21:30:00Z,30.6671,-87.9365,1.326,0.67,1111122 
DISL,ioos:station:DISL:MHPA:1,2017-08-05T22:00:00Z,30.6671,-87.9365,1.274,0.67,1111122 
DISL,ioos:station:DISL:MHPA:1,2017-08-05T22:30:00Z,30.6671,-87.9365,1.235,0.68,1111122 
DISL,ioos:station:DISL:MHPA:1,2017-08-05T23:00:00Z,30.6671,-87.9365,1.2,0.54,1111122 
DISL,ioos:station:DISL:MHPA:1,2017-08-05T23:30:00Z,30.6671,-87.9365,1.164,0.55,1111122 
DISL,ioos:station:DISL:MHPA:1,2017-08-06T00:00:00Z,30.6671,-87.9365,1.117,0.55,1111122 
DISL,ioos:station:DISL:MHPA:1,2017-08-06T00:30:00Z,30.6671,-87.9365,1.079,0.53,1111122 
DISL,ioos:station:DISL:MHPA:1,2017-08-06T01:00:00Z,30.6671,-87.9365,1.059,0.53,1111122 
DISL,ioos:station:DISL:MHPA:1,2017-08-06T01:30:00Z,30.6671,-87.9365,1.052,0.54,1111122 
DISL,ioos:station:DISL:MHPA:1,2017-08-06T02:00:00Z,30.6671,-87.9365,1.029,0.54,1111122 
DISL,ioos:station:DISL:MHPA:1,2017-08-06T02:30:00Z,30.6671,-87.9365,1.012,0.57,1111122 
DISL,ioos:station:DISL:MHPA:1,2017-08-06T03:00:00Z,30.6671,-87.9365,1.0,0.56,1111122 
DISL,ioos:station:DISL:MHPA:1,2017-08-06T03:30:00Z,30.6671,-87.9365,1.0,0.62,1111122 
DISL,ioos:station:DISL:MHPA:1,2017-08-06T04:00:00Z,30.6671,-87.9365,0.997,0.63,1111122 
DISL,ioos:station:DISL:MHPA:1,2017-08-06T04:30:00Z,30.6671,-87.9365,1.007,0.64,1111122 
DISL,ioos:station:DISL:MHPA:1,2017-08-06T05:00:00Z,30.6671,-87.9365,1.03,0.66,1111122 
DISL,ioos:station:DISL:MHPA:1,2017-08-06T05:30:00Z,30.6671,-87.9365,1.054,0.66,1111122 
DISL,ioos:station:DISL:MHPA:1,2017-08-06T06:00:00Z,30.6671,-87.9365,1.084,0.65,1111122 
DISL,ioos:station:DISL:MHPA:1,2017-08-06T06:30:00Z,30.6671,-87.9365,1.115,0.64,1111122 
DISL,ioos:station:DISL:MHPA:1,2017-08-06T07:00:00Z,30.6671,-87.9365,1.166,0.64,1111122 
DISL,ioos:station:DISL:MHPA:1,2017-08-06T07:30:00Z,30.6671,-87.9365,1.206,0.63,1111122 
DISL,ioos:station:DISL:MHPA:1,2017-08-06T08:00:00Z,30.6671,-87.9365,1.25,0.63,1111122 
DISL,ioos:station:DISL:MHPA:1,2017-08-06T08:30:00Z,30.6671,-87.9365,1.287,0.64,1111122 
DISL,ioos:station:DISL:MHPA:1,2017-08-06T09:00:00Z,30.6671,-87.9365,1.312,0.65,1111122 
DISL,ioos:station:DISL:MHPA:1,2017-08-06T09:30:00Z,30.6671,-87.9365,1.352,0.65,1111122 
DISL,ioos:station:DISL:MHPA:1,2017-08-06T10:00:00Z,30.6671,-87.9365,1.377,0.66,1111122 
DISL,ioos:station:DISL:MHPA:1,2017-08-06T10:30:00Z,30.6671,-87.9365,1.402,0.65,1111122 
DISL,ioos:station:DISL:MHPA:1,2017-08-06T11:00:00Z,30.6671,-87.9365,1.419,0.65,1111122 
DISL,ioos:station:DISL:MHPA:1,2017-08-06T11:30:00Z,30.6671,-87.9365,1.445,0.65,1111122 
DISL,ioos:station:DISL:MHPA:1,2017-08-06T12:00:00Z,30.6671,-87.9365,1.462,0.65,1111122 
DISL,ioos:station:DISL:MHPA:1,2017-08-06T12:30:00Z,30.6671,-87.9365,1.479,0.65,1111122 
DISL,ioos:station:DISL:MHPA:1,2017-08-06T13:00:00Z,30.6671,-87.9365,1.5,0.66,1111122 
DISL,ioos:station:DISL:MHPA:1,2017-08-06T13:30:00Z,30.6671,-87.9365,1.571,0.65,1111122 
DISL,ioos:station:DISL:MHPA:1,2017-08-06T14:00:00Z,30.6671,-87.9365,1.576,0.65,1111122 
DISL,ioos:station:DISL:MHPA:1,2017-08-06T14:30:00Z,30.6671,-87.9365,1.56,0.65,1111122 
DISL,ioos:station:DISL:MHPA:1,2017-08-06T15:00:00Z,30.6671,-87.9365,1.58,0.66,1111122 
DISL,ioos:station:DISL:MHPA:1,2017-08-06T15:30:00Z,30.6671,-87.9365,1.617,0.66,1111122 